{"data":{"norad_id":52865,"epoch":"2026-05-24T23:08:01.595040Z","epoch_age_seconds":77332,"freshness":"FRESH","line1":"1 52865U 22062AM  26144.96390735  .00000627  00000+0  57486-4 0  9995","line2":"2 52865  53.2141  41.7115 0001400  83.2220 276.8931 15.08842907217443","mean_motion":15.08842907,"eccentricity":0.00014,"inclination_deg":53.2141,"raan_deg":41.7115,"arg_perigee_deg":83.222,"mean_anomaly_deg":276.8931,"bstar":5.7486e-5,"rev_number":21744,"period_min":95.437370803772,"perigee_km":538.76600143185,"apogee_km":540.70300545282,"semimajor_km":6917.8715034423,"source":"CELESTRAK","updated_at":"2026-05-25T13:38:17.248270Z"}}